Location: Unspecified
(50.0760°N, 14.4380°E)
Time: 18:55:00
(UTC+00:00)

Daily predictions for brighter satellites

Satellite Brightness Start Highest point End
(mag) Time Altitude Azimuth Time Altitude Azimuth Time Altitude Azimuth
ATLAS 2AS CENTAUR R/B 3.5 18:28:33 10° S 18:35:33 38° ESE 18:42:51 10° NE
CENTAUR R/B 4.2 18:31:18 10° NW 18:37:39 32° NNE 18:44:40 10° ENE
Cosmos 1741 Rocket 4.2 18:34:57 10° NNW 18:40:13 81° WSW 18:45:29 10° SSE
Cosmos 1602 3.7 18:37:15 10° S 18:41:05 85° E 18:44:57 10° N
Meteor 1-23 Rocket 4.4 18:36:41 10° N 18:42:12 58° ENE 18:47:41 10° SSE
NOSS 3-1 (A) 3.9 18:36:25 10° SW 18:42:22 70° NW 18:49:13 10° NE
Envisat 3.0 18:40:10 10° SSE 18:45:16 88° ENE 18:50:23 10° NNW
NOSS 2-3 (E) 4.3 18:41:07 10° SSW 18:45:39 45° ESE 18:51:00 10° NE
YAOGAN 6 3.0 18:42:26 10° SE 18:45:48 43° ENE 18:49:09 10° N
Resurs 1-3 4.2 18:45:29 10° S 18:49:49 61° WSW 18:54:12 10° NNW
S3M 4.3 18:44:12 10° NNW 18:50:28 77° W 18:56:48 10° S
Cosmos 1553 Rocket 4.3 18:45:03 10° NNW 18:51:12 70° W 18:57:14 10° S
CZ-4B DEB 4.5 18:50:03 10° SSE 18:53:33 73° ENE 18:57:05 10° N
Cosmos 2360 Rocket 2.9 18:49:47 10° SSE 18:54:42 32° ESE 18:59:39 10° NE
Cosmos 1980 Rocket 3.3 18:50:21 10° SW 18:55:47 49° NW 19:01:14 10° NNE
Okean 2 3.9 18:54:26 10° N 18:58:20 41° ENE 19:02:13 10° SE
H-2A R/B 3.4 18:54:55 10° ESE 18:58:45 22° ENE 19:02:32 10° N
Cosmos 220 Rocket 4.0 18:54:48 10° NNW 18:59:08 87° WSW 19:03:29 10° SSE
COSMOS 2428 4.1 18:55:50 10° SE 18:59:24 17° E 19:02:58 10° ENE
Cosmos 2266 Rocket 4.0 18:53:34 10° S 18:59:28 61° E 19:05:26 10° NNE
Cosmos 1515 4.5 18:56:01 10° N 18:59:33 34° ENE 19:02:56 11° SE
Meteor 1-29 4.2 19:00:11 10° NE 19:02:55 22° E 19:05:27 11° SE
SL-8 R/B 4.0 18:59:00 10° W 19:03:41 56° SSW 19:07:52 13° ESE
Cosmos 1025 Rocket 3.1 19:00:26 10° N 19:04:40 56° ENE 19:08:52 10° SSE
Cosmos 2315 Rocket 4.1 18:58:34 10° N 19:04:47 61° ENE 19:11:00 10° SSE
Cosmos 1300 Rocket 3.5 19:03:51 10° S 19:08:10 82° E 19:12:31 10° NNE
CZ-4B DEB 3.0 19:06:02 13° SE 19:08:23 42° ENE 19:11:09 10° N
Okean 1 Rocket 3.1 19:04:27 10° S 19:08:43 57° E 19:13:03 10° NNE
SPOT 5 3.9 19:06:06 12° ESE 19:09:42 29° ENE 19:13:38 10° N
Lacrosse 5 2.2 19:06:27 10° SSW 19:11:15 44° SE 19:16:04 10° ENE
Meteor 1-5 Rocket 4.1 19:06:06 10° S 19:11:19 63° E 19:16:34 10° NNE
Cosmos 2333 Rocket 4.1 19:12:30 10° E 19:12:48 10° E 19:13:33 10° E
Cosmos 1110 Rocket 4.3 19:09:25 10° S 19:14:19 45° ESE 19:19:15 10° NE
NOAA 11 4.3 19:10:28 10° SSE 19:15:54 63° ENE 19:21:20 10° N
Cosmos 1975 4.2 19:14:05 15° SE 19:16:01 21° E 19:19:04 10° NE
USA 215 4.0 19:10:41 10° ENE 19:17:02 55° NNW 19:23:23 10° W
Meteor 2-4 Rocket 4.3 19:11:39 10° NNW 19:17:06 59° W 19:22:40 10° S
USA 186 4.1 19:15:53 10° SSW 19:18:46 26° W 19:21:39 10° NW
Cosmos 1500 4.2 19:16:15 14° SE 19:18:57 29° E 19:22:20 10° NNE
NOSS 2-3 (C) 3.9 19:14:27 10° SSW 19:19:15 75° SE 19:25:03 10° NE
Okean 1-7 Rocket 3.6 19:15:53 10° N 19:20:24 77° E 19:24:56 10° SSE
EXPRESS MD2 3.2 19:19:48 10° WSW 19:22:40 61° SSE 19:27:59 10° E
SeaSat 1 2.4 19:18:14 10° NE 19:23:10 65° ESE 19:28:04 10° SSW
MetOp-A 4.3 19:18:22 12° SE 19:23:13 59° ENE 19:28:30 10° N
NOSS 3-2 (A) 4.1 19:18:22 10° NW 19:25:37 68° NE 19:32:07 16° ESE
Cosmos 1331 Rocket 4.2 19:21:38 10° S 19:26:38 50° ESE 19:31:43 10° NNE
Resurs 01 Rocket 3.8 19:24:12 10° SSW 19:27:55 25° W 19:31:39 10° NW
USA 238 DEB 3.9 19:21:18 10° NW 19:28:25 82° SW 19:34:25 16° SE
USA 238 3.8 19:21:24 10° NW 19:28:31 82° SW 19:34:31 16° SE
Helios 1A 3.3 19:25:13 10° S 19:29:26 70° WSW 19:33:43 10° NNW
SAR-Lupe-4 3.5 19:30:25 17° SSE 19:33:05 75° ENE 19:36:42 10° N
Cosmos 1536 3.6 19:30:17 10° SSW 19:34:16 54° WNW 19:38:17 10° N
Cosmos 1939 Rocket 4.2 19:31:05 10° SSW 19:34:47 38° W 19:38:28 10° NNW
Cosmos 1066 Rocket 4.3 19:31:18 10° N 19:36:39 57° ENE 19:40:37 18° SSE
H-2A R/B 4.3 19:35:11 10° E 19:37:04 13° NE 19:38:57 10° NNE
ATLAS 3B R/B 2.9 19:34:33 10° NW 19:41:15 63° SW 19:46:30 16° SSE
Cosmos 1354 Rocket 4.5 19:38:20 10° NNW 19:43:31 48° ENE 19:46:39 23° SE
Cosmos 405 3.4 19:42:04 25° SSE 19:43:39 41° E 19:47:04 10° NNE
USA 245 3.7 19:42:04 21° SSE 19:45:07 59° ENE 19:48:57 10° N
Terra 3.1 19:45:50 19° E 19:47:57 26° ENE 19:51:54 10° N
Cosmos 1437 Rocket 3.9 19:48:42 24° E 19:49:06 24° E 19:52:20 10° NE
ARGOS 3.1 19:45:07 18° SSE 19:49:09 77° ENE 19:54:33 10° NNW
SAR-Lupe-1 4.0 19:47:43 22° SSE 19:49:54 84° WSW 19:53:31 10° NNW
Cosmos 1626 Rocket 4.5 19:49:23 10° N 19:53:17 32° ENE 19:54:39 26° ESE
ATLAS CENTAUR R/B 3.5 19:51:02 10° NNW 19:53:19 15° NNE 19:55:36 10° ENE
Cosmos 2263 Rocket 4.1 19:51:37 10° NW 19:56:11 25° WSW 20:00:45 10° SSW
Cosmos 1892 Rocket 3.5 19:52:17 10° N 19:56:46 86° E 19:59:26 23° S
Cosmos 1818 4.0 19:54:12 10° S 19:59:10 38° ESE 20:04:10 10° NE
NOSS 2-3 (D) 4.4 19:54:23 10° SW 19:59:14 67° NW 20:05:10 10° NE
SPOT 1/Viking Rocket 3.7 19:57:10 25° SE 20:00:07 62° ENE 20:05:17 10° N
Molniya-1 4.3 19:57:50 10° WNW 20:00:24 46° SW 20:01:25 33° S
Cosmos 2278 Rocket 2.8 19:56:37 10° NNW 20:02:06 46° NE 20:05:02 25° ESE
Cosmos 1844 Rocket 2.7 19:57:43 10° NNW 20:03:26 84° WSW 20:06:48 26° SSE
Cosmos 1666 3.7 20:04:12 28° E 20:04:12 28° E 20:07:33 10° NNE
Cosmos 1503 Rocket 4.1 19:58:55 10° NNW 20:04:18 68° ENE 20:07:02 29° SE
NOSS 3-2 (C) 4.0 19:57:56 10° NW 20:05:17 82° NE 20:10:21 25° SE
Cosmos 2322 Rocket 3.6 20:01:10 10° WSW 20:06:33 41° NW 20:11:56 10° NNE
Helios 1B rocket 3.1 20:03:51 10° N 20:07:53 56° WNW 20:11:54 10° SSW
Abrixas rocket 2.9 20:05:06 10° W 20:08:11 38° SSW 20:08:21 37° SSW
ERS-1 Rocket 3.6 20:06:46 15° S 20:10:53 53° W 20:15:49 10° NNW
Aureole 3 Rocket 4.5 20:03:40 10° NNW 20:12:28 81° W 20:17:27 19° S
ERBS 4.4 20:10:27 10° WNW 20:13:31 28° N 20:16:34 10° NE
Cosmos 2237 4.1 20:08:59 10° SSW 20:14:39 79° ESE 20:20:23 10° NNE
Cosmos 1544 Rocket 3.5 20:12:28 27° S 20:14:48 73° E 20:19:16 10° NNE
Cosmos 1842 4.1 20:11:41 10° N 20:15:20 34° ENE 20:15:48 33° E
IGS 5A 4.2 20:14:36 33° E 20:15:31 38° ENE 20:19:25 10° N
Nadezhda 1 Rocket 4.0 20:09:36 10° N 20:15:56 71° E 20:19:26 28° SSE
SL-16 R/B 3.9 20:14:16 10° WSW 20:19:26 35° NW 20:24:38 10° NNE
Cosmos 1238 Rocket 4.4 20:14:20 10° NNW 20:21:02 67° W 20:25:59 17° S
Cosmos 2219 Rocket 2.5 20:20:52 32° SSE 20:22:47 43° ESE 20:28:08 10° NE
Cosmos 1743 2.7 20:22:26 54° SE 20:22:54 59° E 20:26:41 10° NNE
GP-B 3.6 20:19:44 10° NNE 20:23:59 41° E 20:24:35 39° ESE
ATLAS 2AS CENTAUR R/B 3.3 20:18:19 10° SW 20:26:12 72° NW 20:34:23 10° NE
Cosmos 1455 Rocket 3.0 20:25:06 33° S 20:27:06 84° E 20:31:37 10° NNE
CENTAUR R/B 3.4 20:22:23 10° NW 20:29:53 60° NE 20:34:53 25° ESE
Cosmos 2322 4.0 20:25:34 10° SW 20:31:12 67° WNW 20:36:53 10° NNE
Cosmos 724 4.5 20:28:19 10° NW 20:34:10 64° WSW 20:36:34 35° S
Nimbus 7 Rocket 4.3 20:30:47 10° NNE 20:36:37 66° ESE 20:39:24 32° S
NOSS 3-4 (A) 3.8 20:34:38 33° SSE 20:36:42 44° ESE 20:42:49 10° NE
SL-16 R/B 4.1 20:38:18 13° ENE 20:38:18 13° ENE 20:39:43 10° ENE
Cosmos 2181 Rocket 4.5 20:30:30 10° N 20:36:44 48° ENE 20:38:57 35° ESE
NOSS 3-4 (C) 3.8 20:34:52 34° SSE 20:36:49 43° ESE 20:42:55 10° NE
H-2A R/B 2.3 20:35:24 30° S 20:37:48 62° WSW 20:42:44 10° NNW
Cosmos 2360 Rocket 3.0 20:33:01 10° SW 20:38:30 51° NW 20:44:00 10° NNE
Cosmos 1709 Rocket 4.4 20:37:06 36° SE 20:38:47 44° E 20:44:40 10° NNE
Meteor 1-12 Rocket 4.3 20:34:42 17° SSW 20:39:08 77° WNW 20:44:51 10° N
BREEZE-M DEB (TANK) 4.0 20:36:35 10° WSW 20:41:01 81° SSE 20:59:51 10° E
COSMOS 2428 2.7 20:37:08 10° SSW 20:42:53 90° WNW 20:48:40 10° NNE
Cosmos 1844 4.1 20:38:46 10° NW 20:44:18 55° WSW 20:46:40 33° S
Cosmos 1302 Rocket 4.4 20:42:03 10° SW 20:47:18 65° WNW 20:52:35 10° NNE
SPOT 5 3.8 20:45:21 25° SSW 20:47:40 41° W 20:52:02 10° NNW
Cosmos 1992 Rocket 4.1 20:47:38 48° SE 20:48:07 50° ESE 20:53:11 10° NNE
BREEZE-M DEB (TANK) 4.2 20:30:39 10° WSW 20:51:26 70° SSE 20:55:08 21° E
Cosmos 968 Rocket 3.5 20:46:24 10° NNW 20:51:31 64° ENE 20:52:36 51° ESE
Cosmos 1975 4.1 20:49:51 19° SW 20:52:18 38° WNW 20:56:04 10° N
Lacrosse 5 2.4 20:49:09 10° WSW 20:54:10 60° NNW 20:59:13 10° NE
Cosmos 2333 Rocket 2.1 20:54:26 46° SSE 20:55:54 62° ESE 21:01:29 10° NE
USA 215 4.0 20:53:15 10° E 20:59:31 50° N 21:05:47 10° WNW
CARTOSAT-1 3.5 20:59:03 65° SSW 20:59:35 77° WSW 21:03:57 10° NNW
Cosmos 2333 4.4 20:56:57 10° SW 21:02:35 72° WNW 21:08:14 10° NNE
DNEPR-1 R/B 3.7 20:59:08 10° NW 21:03:28 66° NE 21:04:04 59° E
ALOS 2 4.4 21:05:23 19° ENE 21:05:43 19° ENE 21:08:48 10° NNE
Cosmos 2369 Rocket 4.2 21:03:28 10° N 21:07:38 20° NE 21:11:01 13° ENE
Cosmos 1602 Rocket 4.0 21:03:34 10° NNW 21:07:48 52° W 21:08:28 47° SW
Meteor 1-15 Rocket 4.5 21:08:44 49° ESE 21:09:31 53° E 21:15:15 10° NNE
Cosmos 2237 Rocket 2.2 21:10:14 55° SE 21:10:33 56° ESE 21:16:04 10° NE
H-2A R/B 2.0 21:12:13 79° E 21:12:18 79° ENE 21:16:46 10° NNW
NOSS 0 Rocket 3.8 21:11:21 47° S 21:13:08 69° ESE 21:19:21 10° NE
Cosmos 1953 Rocket 4.0 21:10:07 10° N 21:14:19 50° ENE 21:14:19 50° ENE
Meteor 1-4 Rocket 3.5 21:18:03 46° NNE 21:18:03 46° NNE 21:20:51 10° NNE
Cosmos 1980 3.6 21:16:31 60° SSE 21:17:17 68° ESE 21:22:57 10° NNE
CZ-4B R/B 4.2 21:14:43 10° NNE 21:18:21 36° ENE 21:18:21 36° ENE
COSMOS 2455 3.0 21:13:47 10° NNW 21:19:49 68° NE 21:21:18 50° ESE
Cosmos 1437 Rocket 4.3 21:24:07 27° WSW 21:25:16 33° WNW 21:28:52 10° N
Terra 2.4 21:24:44 43° SW 21:25:28 47° W 21:30:06 10° NNW
ARGOS Delta rocket 3.6 21:22:35 10° N 21:27:11 87° WNW 21:27:23 82° SW
Aureole 2 Rocket 4.1 21:28:57 30° NW 21:28:57 30° NW 21:31:33 10° N
ATLAS CENTAUR R/B 3.5 21:17:30 10° WNW 21:32:33 73° NNE 21:34:53 40° E
CZ-4C R/B 4.3 21:33:46 38° N 21:33:46 38° N 21:36:05 10° N
ATLAS CENTAUR R/B 2.1 21:29:17 10° NW 21:32:03 46° NNW 21:32:03 46° NNW
Cosmos 2297 3.5 21:28:43 10° NNW 21:34:25 89° WSW 21:35:07 70° SSE
BREEZE M DEB (TANK) 4.1 21:19:47 10° WSW 21:34:51 66° SSE 21:36:03 52° ESE
deb Chang Zheng 4 4.1 21:31:17 10° NNE 21:34:49 52° NE 21:34:49 52° NE
Cosmos 1606 Rocket 4.0 21:38:18 54° NE 21:38:18 54° NE 21:41:56 10° NNE
EXPRESS MD2 4.2 21:36:25 10° W 21:40:42 85° S 21:45:06 28° ESE
Cosmos 1707 3.7 21:37:33 10° N 21:40:23 45° N 21:40:23 45° N
Cosmos 1818 4.4 21:37:21 10° WSW 21:42:38 50° NW 21:47:58 10° NE
SL-24 R/B 4.3 21:38:07 10° N 21:43:02 83° W 21:43:05 83° W
RESURS DK-1 3.6 21:47:03 36° NE 21:47:03 36° NE 21:49:38 10° NNE
Cosmos 2278 Rocket 3.1 21:40:57 10° NW 21:46:06 36° WSW 21:46:52 35° SW
ERBS 4.4 21:47:49 10° NW 21:50:35 28° N 21:50:35 28° N
SL-08 ROCKET BODY 4.2 21:53:02 71° S 21:53:44 89° E 21:59:37 10° N
Cosmos 1825 Rocket 4.3 21:50:25 10° NNW 21:54:10 46° WNW 21:54:10 46° WNW
Cosmos 2228 3.9 21:58:23 42° NE 21:58:23 42° NE 22:01:34 10° NNE
CZ-2C R/B 2.9 21:58:11 75° NNE 21:58:11 75° NNE 22:02:46 10° NNW
Cosmos 1777 Rocket 3.9 21:53:42 10° NNW 21:58:57 78° WSW 21:58:57 78° WSW
CZ-2C R/B 3.0 21:54:42 10° NNE 21:59:34 50° E 21:59:34 50° E
Cosmos 2184 Rocket 3.8 22:00:02 69° SE 22:00:37 74° E 22:06:50 10° NNE
Cosmos 2074 Rocket 3.8 22:00:28 69° SSE 22:01:09 77° E 22:07:25 10° NNE
Meteor 2-8 Rocket 4.4 21:56:09 10° N 22:02:19 70° ENE 22:02:58 65° ESE
Cosmos 1340 Rocket 3.9 21:59:06 10° NNW 22:01:51 43° NNW 22:01:51 43° NNW
Cosmos 2058 Rocket 3.7 22:07:00 51° NNE 22:07:00 51° NNE 22:10:21 10° NNE
Cosmos 2219 Rocket 3.4 22:02:31 15° WSW 22:06:50 40° NW 22:12:09 10° NNE
Nadezhda 3 Rocket 4.1 22:01:04 10° N 22:07:24 62° ENE 22:08:10 57° ESE
SL-16 R/B 2.1 22:20:09 79° E 22:20:09 79° E 22:25:38 10° NNE
CENTAUR R/B 3.4 22:13:14 10° NW 22:20:43 51° WSW 22:22:03 47° SSW
Cosmos 1271 Rocket 4.3 22:22:16 34° N 22:22:16 34° N 22:24:31 10° N
Meteor 1-24 Rocket 3.7 22:17:03 10° NNW 22:22:56 89° ENE 22:23:11 83° SSE
Cosmos 1943 Rocket 3.4 22:21:17 10° NNW 22:26:17 34° NE 22:27:49 29° E
NOSS 3-4 (A) 4.1 22:21:56 13° WSW 22:27:32 54° NW 22:34:04 10° NE
NOSS 3-4 (C) 4.1 22:22:10 14° WSW 22:27:38 54° NW 22:34:10 10° NE
Cosmos 489 Rocket 4.3 22:24:18 10° NNW 22:30:34 90° WSW 22:30:58 80° SSE
Meteor 2-5 Rocket 4.2 22:26:46 10° NNW 22:32:30 53° W 22:32:50 52° WSW
Iridium 4 Rocket 4.3 22:34:51 35° NE 22:34:51 35° NE 22:37:44 10° NNE
Cosmos 1610 Rocket 4.3 22:33:48 78° S 22:34:16 90° WNW 22:40:36 10° N
Lacrosse 5 3.2 22:33:07 10° WNW 22:37:52 38° N 22:42:36 10° ENE
Cosmos 2333 Rocket 3.8 22:36:22 13° WSW 22:40:34 30° NW 22:45:33 10° NNE
ALOS 2 3.5 22:42:47 44° NW 22:42:47 44° NW 22:46:01 10° NNW
USA 215 3.3 22:39:36 40° ESE 22:42:10 78° NNE 22:48:44 10° WNW
CZ-4B R/B 4.2 22:45:33 15° NNE 22:45:33 15° NNE 22:46:23 10° NNE
Cosmos 1937 Rocket 4.1 22:40:42 10° NNW 22:45:52 49° ENE 22:46:06 49° ENE
In-Cosmos 22 4.2 22:46:27 10° NNW 22:51:19 65° WNW 22:51:19 65° WNW
Cosmos 2369 Rocket 2.2 22:46:55 10° NNW 22:52:41 75° ENE 22:52:46 74° ENE
Cosmos 1898 Rocket 3.6 22:48:20 10° NNW 22:53:18 70° NNE 22:53:18 70° NNE
Cosmos 2237 Rocket 3.7 22:52:01 20° W 22:54:56 32° NW 23:00:00 10° NNE
Cosmos 2154 Rocket 3.9 22:59:43 72° WSW 23:00:09 76° W 23:06:24 10° N
Cosmos 1812 Rocket 4.5 23:02:25 46° N 23:02:25 46° N 23:05:33 10° N
Cosmos 1674 4.4 22:57:53 10° N 23:00:07 32° N 23:00:07 32° N
Cosmos 990 Rocket 4.3 22:58:09 10° NNW 23:03:17 59° ENE 23:03:17 59° ENE
COSMOS 2455 4.2 23:00:20 10° NW 23:04:26 27° W 23:04:26 27° W
Cosmos 1570 Rocket 4.2 23:06:30 67° NE 23:06:30 67° NE 23:11:06 10° NNE
Mayak -0.1 23:02:02 10° NNE 23:04:50 42° NNE 23:04:50 42° NNE
Okean 3 Rocket 4.3 23:02:27 10° N 23:05:59 52° N 23:05:59 52° N
Cosmos 1943 4.0 23:10:16 39° E 23:10:16 39° E 23:14:49 10° NE
Meteor 1-21 Rocket 4.2 23:06:28 10° NNW 23:12:27 86° E 23:12:33 85° ESE
GEOS 3 Rocket 4.1 23:12:06 48° E 23:13:08 57° NE 23:18:20 10° NW
Cosmos 2344 4.5 23:08:38 10° NW 23:18:40 84° NE 23:31:59 12° SE
Meteor 2-21 4.4 23:22:14 74° SE 23:22:33 76° E 23:28:47 10° NNE
Cosmos 2150 Rocket 4.1 23:19:14 10° NNW 23:23:51 71° NNW 23:23:51 71° NNW
Cosmos 1953 3.7 23:28:01 37° N 23:28:01 37° N 23:30:30 10° N
SL-8 Rocket 3.8 23:26:41 79° SSE 23:27:03 83° E 23:33:17 10° N
Cosmos 1408 Rocket 4.5 23:23:14 10° N 23:26:34 45° NNE 23:26:34 45° NNE
Cosmos 1809 Rocket 4.3 23:29:23 81° S 23:29:44 87° E 23:35:59 10° N
Cosmos 1626 4.4 23:31:12 10° NNE 23:33:33 21° NE 23:33:33 21° NE
Cosmos 371 Rocket 3.8 23:36:39 54° ENE 23:36:39 54° ENE 23:40:36 10° NNE
Cosmos 2298 Rocket 4.3 23:31:08 10° NNW 23:35:40 60° WNW 23:35:40 60° WNW
CZ-2C R/B 4.0 23:35:26 10° N 23:40:04 30° WNW 23:41:05 28° W
Cosmos 2218 Rocket 3.9 23:39:56 75° S 23:40:32 87° E 23:46:59 10° N
Cosmos 2263 4.4 23:41:00 10° NW 23:45:49 57° WNW 23:45:49 57° WNW
H-2A R/B 3.9 23:42:52 10° NNE 23:45:14 30° NE 23:45:14 30° NE
Cosmos 2058 4.3 23:47:29 10° N 23:50:55 32° ENE 23:50:55 32° ENE
Resurs 1-4 Rocket 4.4 23:51:04 10° ENE 23:53:22 13° E 23:55:19 11° ESE
